Location: Unspecified
(0.0000°N, 0.0000°E)
Time: 11:19:40
(UTC+00:00)

Vanguard 3 - Pass Details

Date: 13 December 2017
Orbit: 508 x 3264 km, 33.3° (Epoch: 22 July)

Event Time Altitude Azimuth Distance (km) Brightness Sun altitude
Rises 10:19:37 0° 260° (W) 5,006 11.0 57.4°
Reaches altitude 10° 10:24:47 10° 277° (W) 3,420 10.2 58.2°
Maximum altitude 10:29:56 18° 316° (NW) 2,287 9.4 59.1°
Drops below altitude 10° 10:33:44 10° 359° (N) 2,394 9.4 59.7°
Sets 10:36:32 0° 20° (NNE) 3,038 9.9 60.1°
